Window Rock, AZ

8:32 PM MST on February 21, 2018 (GMT -0700)
Window Rock

Weather History for KRQE - June, 2012

Change the Weather History Date:

Friday, June 29, 2012

  Actual Average Record
Temperature  
Mean Temperature 72 °F -  
Max Temperature 91 °F 86 °F 97 °F (1990)
Min Temperature 52 °F 53 °F 34 °F (2005)
Cooling Degree Days 6    
Growing Degree Days 22 (Base 50)    
Moisture  
Dew Point 32 °F    
Average Humidity 26    
Maximum Humidity 59    
Minimum Humidity 9    
Precipitation  
Precipitation 0.00 in - - ()
Sea Level Pressure  
Sea Level Pressure 29.87 in    
Wind  
Wind Speed 3 mph (West)    
Max Wind Speed 18 mph    
Max Gust Speed 23 mph    
Visibility 10 miles    
Events      
Averages and records for this station are not official NWS values.
T = Trace of Precipitation, MM = Missing Value Source: NWS Daily Summary

Daily Weather History Graph

Daily Weather History Graph

Search for Another Location

Airport or City:

Trip Planner

Search our weather history database for the weather conditions in past years. The results will help you decide how hot, cold, wet, or windy it might be!

Date:

Astronomy

Jun. 29, 2012 Rise Set
Actual Time 6:03 AM MDT 8:36 PM MDT
Civil Twilight 5:33 AM MDT 9:06 PM MDT
Nautical Twilight 4:56 AM MDT 9:43 PM MDT
Astronomical Twilight 4:15 AM MDT 10:24 PM MDT
Moon 4:28 PM MDT (6/29) 2:12 AM MDT (6/29)
Length of Visible Light 15h 32m
Length of Day
14h 32m
Waxing Gibbous, 78% of the Moon is Illuminated
Jun 29
Waxing Gibbous
Jul 3
Full
Jul 10
Last Quarter
Jul 18
New
Jul 26
First Quarter

Hourly Weather History & Observations

Time (MDT) Temp. Dew Point Humidity Pressure Visibility Wind Dir Wind Speed Gust Speed Precip Events Conditions
12:53 AM 61.0 °F 37.9 °F 42% 29.96 in 10.0 mi Calm Calm - N/A   Clear
1:53 AM 57.9 °F 37.9 °F 47% 29.96 in 10.0 mi Calm Calm - N/A   Clear
2:53 AM 59.0 °F 37.0 °F 44% 29.92 in 10.0 mi Calm Calm - N/A   Clear
3:53 AM 53.1 °F 37.9 °F 57% 29.94 in 10.0 mi Calm Calm - N/A   Clear
4:53 AM 53.1 °F 37.0 °F 55% 29.93 in 10.0 mi Calm Calm - N/A   Clear
5:53 AM 52.0 °F 37.9 °F 59% 29.95 in 10.0 mi Calm Calm - N/A   Clear
6:53 AM 54.0 °F 39.0 °F 57% 29.99 in 10.0 mi SSW 3.5 mph - N/A   Clear
7:53 AM 66.0 °F 41.0 °F 40% 29.94 in 10.0 mi SSE 3.5 mph - N/A   Clear
8:53 AM 75.9 °F 39.0 °F 26% 29.94 in 10.0 mi Variable 3.5 mph - N/A   Clear
9:53 AM 82.0 °F 35.1 °F 18% 29.93 in 10.0 mi Variable 3.5 mph - N/A   Clear
10:53 AM 84.0 °F 34.0 °F 17% 29.92 in 10.0 mi Calm Calm - N/A   Clear
11:53 AM 87.1 °F 32.0 °F 14% 29.88 in 10.0 mi Variable 4.6 mph - N/A   Clear
12:53 PM 87.1 °F 28.9 °F 12% 29.91 in 10.0 mi NNW 6.9 mph 18.4 mph N/A   Partly Cloudy
1:53 PM 91.9 °F 28.0 °F 10% 29.87 in 10.0 mi West 15.0 mph 20.7 mph N/A   Partly Cloudy
2:53 PM 91.9 °F 26.1 °F 9% 29.84 in 10.0 mi West 11.5 mph 17.3 mph N/A   Clear
3:53 PM 91.0 °F 27.0 °F 10% 29.85 in 10.0 mi West 18.4 mph 23.0 mph N/A   Clear
4:53 PM 91.9 °F 28.0 °F 10% 29.82 in 10.0 mi WNW 11.5 mph 20.7 mph N/A   Clear
5:53 PM 90.0 °F 26.1 °F 10% 29.82 in 10.0 mi West 16.1 mph - N/A   Clear
6:53 PM 89.1 °F 26.1 °F 10% 29.81 in 10.0 mi NNW 9.2 mph - N/A   Clear
7:53 PM 86.0 °F 28.9 °F 13% 29.78 in 10.0 mi WNW 4.6 mph - N/A   Clear
8:53 PM 78.1 °F 28.9 °F 17% 29.76 in 10.0 mi Calm Calm - N/A   Clear
9:53 PM 71.1 °F 28.9 °F 21% 29.78 in 10.0 mi SSW 8.1 mph - N/A   Clear
10:53 PM 69.1 °F 28.9 °F 22% 29.78 in 10.0 mi Calm Calm - N/A   Clear
11:53 PM 68.0 °F 30.0 °F 24% 29.77 in 10.0 mi Calm Calm - N/A   Clear